Year,Month,Day,Hour,Minute,Value (Times are PST for temperature in C)
2014,05,02,00,00,11.60
2014,05,02,00,01,11.60
2014,05,02,00,02,11.60
2014,05,02,00,03,11.60
2014,05,02,00,04,11.50
2014,05,02,00,05,11.50
2014,05,02,00,06,11.50
2014,05,02,00,07,11.50
2014,05,02,00,08,11.50
2014,05,02,00,09,11.50
2014,05,02,00,10,11.50
2014,05,02,00,11,11.50
2014,05,02,00,12,11.50
2014,05,02,00,13,11.50
2014,05,02,00,14,11.50
2014,05,02,00,15,11.40
2014,05,02,00,16,11.50
2014,05,02,00,17,11.60
2014,05,02,00,18,11.70
2014,05,02,00,19,11.80
2014,05,02,00,20,11.90
2014,05,02,00,21,12.00
2014,05,02,00,22,12.10
2014,05,02,00,23,12.10
2014,05,02,00,24,12.20
2014,05,02,00,25,12.20
2014,05,02,00,26,12.10
2014,05,02,00,27,12.10
2014,05,02,00,28,12.10
2014,05,02,00,29,12.10
2014,05,02,00,30,12.10
2014,05,02,00,31,12.00
2014,05,02,00,32,11.90
2014,05,02,00,33,11.90
2014,05,02,00,34,11.80
2014,05,02,00,35,11.80
2014,05,02,00,36,11.80
2014,05,02,00,37,11.70
2014,05,02,00,38,11.70
2014,05,02,00,39,11.70
2014,05,02,00,40,11.70
2014,05,02,00,41,11.60
2014,05,02,00,42,11.60
2014,05,02,00,43,11.60
2014,05,02,00,44,11.60
2014,05,02,00,45,11.60
2014,05,02,00,46,11.60
2014,05,02,00,47,11.70
2014,05,02,00,48,11.70
2014,05,02,00,49,11.80
2014,05,02,00,50,11.90
2014,05,02,00,51,11.90
2014,05,02,00,52,12.00
2014,05,02,00,53,12.00
2014,05,02,00,54,12.00
2014,05,02,00,55,12.00
2014,05,02,00,56,12.00
2014,05,02,00,57,12.00
2014,05,02,00,58,11.90
2014,05,02,00,59,11.90
2014,05,02,01,00,11.90
2014,05,02,01,01,11.90
2014,05,02,01,02,11.80
2014,05,02,01,03,11.80
2014,05,02,01,04,11.80
2014,05,02,01,05,11.80
2014,05,02,01,06,11.80
2014,05,02,01,07,11.80
2014,05,02,01,08,11.80
2014,05,02,01,09,11.80
2014,05,02,01,10,11.80
2014,05,02,01,11,11.70
2014,05,02,01,12,11.70
2014,05,02,01,13,11.70
2014,05,02,01,14,11.70
2014,05,02,01,15,11.70
2014,05,02,01,16,11.70
2014,05,02,01,17,11.70
2014,05,02,01,18,11.80
2014,05,02,01,19,11.80
2014,05,02,01,20,11.80
2014,05,02,01,21,11.80
2014,05,02,01,22,11.80
2014,05,02,01,23,11.90
2014,05,02,01,24,11.90
2014,05,02,01,25,12.00
2014,05,02,01,26,12.10
2014,05,02,01,27,12.30
2014,05,02,01,28,12.50
2014,05,02,01,29,12.50
2014,05,02,01,30,12.60
2014,05,02,01,31,12.50
2014,05,02,01,32,12.50
2014,05,02,01,33,12.40
2014,05,02,01,34,12.40
2014,05,02,01,35,12.30
2014,05,02,01,36,12.20
2014,05,02,01,37,12.10
2014,05,02,01,38,12.00
2014,05,02,01,39,11.90
2014,05,02,01,40,11.90
2014,05,02,01,41,11.80
2014,05,02,01,42,11.80
2014,05,02,01,43,11.70
2014,05,02,01,44,11.70
2014,05,02,01,45,11.60
2014,05,02,01,46,11.60
2014,05,02,01,47,11.60
2014,05,02,01,48,11.60
2014,05,02,01,49,11.60
2014,05,02,01,50,11.60
2014,05,02,01,51,11.60
2014,05,02,01,52,11.60
2014,05,02,01,53,11.50
2014,05,02,01,54,11.50
2014,05,02,01,55,11.40
2014,05,02,01,56,11.40
2014,05,02,01,57,11.40
2014,05,02,01,58,11.30
2014,05,02,01,59,11.30
2014,05,02,02,00,11.20
2014,05,02,02,01,11.20
2014,05,02,02,02,11.10
2014,05,02,02,03,11.10
2014,05,02,02,04,11.00
2014,05,02,02,05,11.00
2014,05,02,02,06,10.90
2014,05,02,02,07,10.90
2014,05,02,02,08,10.90
2014,05,02,02,09,10.90
2014,05,02,02,10,10.90
2014,05,02,02,11,11.00
2014,05,02,02,12,11.00
2014,05,02,02,13,11.00
2014,05,02,02,14,11.20
2014,05,02,02,15,11.30
2014,05,02,02,16,11.50
2014,05,02,02,17,11.60
2014,05,02,02,18,11.70
2014,05,02,02,19,11.70
2014,05,02,02,20,11.80
2014,05,02,02,21,11.70
2014,05,02,02,22,11.70
2014,05,02,02,23,11.60
2014,05,02,02,24,11.40
2014,05,02,02,25,11.30
2014,05,02,02,26,11.20
2014,05,02,02,27,11.20
2014,05,02,02,28,11.20
2014,05,02,02,29,11.20
2014,05,02,02,30,11.10
2014,05,02,02,31,11.10
2014,05,02,02,32,11.10
2014,05,02,02,33,11.00
2014,05,02,02,34,10.90
2014,05,02,02,35,10.90
2014,05,02,02,36,10.80
2014,05,02,02,37,10.80
2014,05,02,02,38,11.00
2014,05,02,02,39,11.20
2014,05,02,02,40,11.20
2014,05,02,02,41,11.30
2014,05,02,02,42,11.40
2014,05,02,02,43,11.40
2014,05,02,02,44,11.40
2014,05,02,02,45,11.40
2014,05,02,02,46,11.40
2014,05,02,02,47,11.50
2014,05,02,02,48,11.40
2014,05,02,02,49,11.40
2014,05,02,02,50,11.30
2014,05,02,02,51,11.30
2014,05,02,02,52,11.20
2014,05,02,02,53,11.10
2014,05,02,02,54,11.00
2014,05,02,02,55,10.90
2014,05,02,02,56,10.90
2014,05,02,02,57,10.80
2014,05,02,02,58,10.70
2014,05,02,02,59,10.70
2014,05,02,03,00,10.80
2014,05,02,03,01,10.80
2014,05,02,03,02,10.90
2014,05,02,03,03,10.90
2014,05,02,03,04,11.00
2014,05,02,03,05,11.00
2014,05,02,03,06,11.10
2014,05,02,03,07,11.10
2014,05,02,03,08,11.20
2014,05,02,03,09,11.20
2014,05,02,03,10,11.30
2014,05,02,03,11,11.40
2014,05,02,03,12,11.50
2014,05,02,03,13,11.60
2014,05,02,03,14,11.60
2014,05,02,03,15,11.50
2014,05,02,03,16,11.50
2014,05,02,03,17,11.40
2014,05,02,03,18,11.30
2014,05,02,03,19,11.30
2014,05,02,03,20,11.20
2014,05,02,03,21,11.10
2014,05,02,03,22,11.00
2014,05,02,03,23,10.90
2014,05,02,03,24,11.00
2014,05,02,03,25,11.10
2014,05,02,03,26,11.30
2014,05,02,03,27,11.40
2014,05,02,03,28,11.50
2014,05,02,03,29,11.60
2014,05,02,03,30,11.70
2014,05,02,03,31,11.70
2014,05,02,03,32,11.70
2014,05,02,03,33,11.80
2014,05,02,03,34,11.80
2014,05,02,03,35,11.80
2014,05,02,03,36,11.80
2014,05,02,03,37,11.90
2014,05,02,03,38,11.90
2014,05,02,03,39,11.90
2014,05,02,03,40,11.80
2014,05,02,03,41,11.70
2014,05,02,03,42,11.70
2014,05,02,03,43,11.60
2014,05,02,03,44,11.50
2014,05,02,03,45,11.50
2014,05,02,03,46,11.40
2014,05,02,03,47,11.30
2014,05,02,03,48,11.30
2014,05,02,03,49,11.30
2014,05,02,03,50,11.30
2014,05,02,03,51,11.20
2014,05,02,03,52,11.20
2014,05,02,03,53,11.10
2014,05,02,03,54,11.10
2014,05,02,03,55,11.10
2014,05,02,03,56,11.00
2014,05,02,03,57,11.00
2014,05,02,03,58,10.90
2014,05,02,03,59,10.90
2014,05,02,04,00,10.90
2014,05,02,04,01,10.80
2014,05,02,04,02,10.80
2014,05,02,04,03,10.80
2014,05,02,04,04,10.80
2014,05,02,04,05,10.80
2014,05,02,04,06,10.80
2014,05,02,04,07,10.70
2014,05,02,04,08,10.70
2014,05,02,04,09,10.70
2014,05,02,04,10,10.60
2014,05,02,04,11,10.60
2014,05,02,04,12,10.60
2014,05,02,04,13,10.60
2014,05,02,04,14,10.60
2014,05,02,04,15,10.60
2014,05,02,04,16,10.60
2014,05,02,04,17,10.60
2014,05,02,04,18,10.60
2014,05,02,04,19,10.70
2014,05,02,04,20,10.70
2014,05,02,04,21,10.70
2014,05,02,04,22,10.70
2014,05,02,04,23,10.70
2014,05,02,04,24,10.80
2014,05,02,04,25,10.80
2014,05,02,04,26,10.90
2014,05,02,04,27,10.90
2014,05,02,04,28,10.90
2014,05,02,04,29,10.90
2014,05,02,04,30,10.80
2014,05,02,04,31,10.70
2014,05,02,04,32,10.60
2014,05,02,04,33,10.50
2014,05,02,04,34,10.50
2014,05,02,04,35,10.40
2014,05,02,04,36,10.40
2014,05,02,04,37,10.40
2014,05,02,04,38,10.40
2014,05,02,04,39,10.40
2014,05,02,04,40,10.40
2014,05,02,04,41,10.40
2014,05,02,04,42,10.40
2014,05,02,04,43,10.40
2014,05,02,04,44,10.40
2014,05,02,04,45,10.50
2014,05,02,04,46,10.50
2014,05,02,04,47,10.50
2014,05,02,04,48,10.60
2014,05,02,04,49,10.50
2014,05,02,04,50,10.50
2014,05,02,04,51,10.50
2014,05,02,04,52,10.50
2014,05,02,04,53,10.40
2014,05,02,04,54,10.40
2014,05,02,04,55,10.40
2014,05,02,04,56,10.40
2014,05,02,04,57,10.40
2014,05,02,04,58,10.40
2014,05,02,04,59,10.30
2014,05,02,05,00,10.30
2014,05,02,05,01,10.30
2014,05,02,05,02,10.30
2014,05,02,05,03,10.30
2014,05,02,05,04,10.30
2014,05,02,05,05,10.30
2014,05,02,05,06,10.30
2014,05,02,05,07,10.20
2014,05,02,05,08,10.20
2014,05,02,05,09,10.10
2014,05,02,05,10,10.00
2014,05,02,05,11,9.90
2014,05,02,05,12,9.90
2014,05,02,05,13,9.80
2014,05,02,05,14,9.70
2014,05,02,05,15,9.70
2014,05,02,05,16,9.60
2014,05,02,05,17,9.60
2014,05,02,05,18,9.60
2014,05,02,05,19,9.60
2014,05,02,05,20,9.60
2014,05,02,05,21,9.60
2014,05,02,05,22,9.60
2014,05,02,05,23,9.60
2014,05,02,05,24,9.50
2014,05,02,05,25,9.60
2014,05,02,05,26,9.60
2014,05,02,05,27,9.70
2014,05,02,05,28,9.80
2014,05,02,05,29,9.90
2014,05,02,05,30,10.00
2014,05,02,05,31,10.10
2014,05,02,05,32,10.10
2014,05,02,05,33,10.10
2014,05,02,05,34,10.20
2014,05,02,05,35,10.10
2014,05,02,05,36,10.10
2014,05,02,05,37,10.10
2014,05,02,05,38,10.10
2014,05,02,05,39,10.20
2014,05,02,05,40,10.20
2014,05,02,05,41,10.20
2014,05,02,05,42,10.20
2014,05,02,05,43,10.20
2014,05,02,05,44,10.10
2014,05,02,05,45,10.00
2014,05,02,05,46,10.00
2014,05,02,05,47,9.90
2014,05,02,05,48,9.80
2014,05,02,05,49,9.70
2014,05,02,05,50,9.70
2014,05,02,05,51,9.60
2014,05,02,05,52,9.60
2014,05,02,05,53,9.70
2014,05,02,05,54,9.70
2014,05,02,05,55,9.70
2014,05,02,05,56,9.70
2014,05,02,05,57,9.70
2014,05,02,05,58,9.70
2014,05,02,05,59,9.70
2014,05,02,06,00,9.70
2014,05,02,06,01,9.60
2014,05,02,06,02,9.60
2014,05,02,06,03,9.50
2014,05,02,06,04,9.40
2014,05,02,06,05,9.30
2014,05,02,06,06,9.30
2014,05,02,06,07,9.20
2014,05,02,06,08,9.20
2014,05,02,06,09,9.10
2014,05,02,06,10,9.10
2014,05,02,06,11,9.00
2014,05,02,06,12,9.00
2014,05,02,06,13,8.90
2014,05,02,06,14,8.90
2014,05,02,06,15,8.90
2014,05,02,06,16,8.90
2014,05,02,06,17,8.90
2014,05,02,06,18,8.90
2014,05,02,06,19,8.90
2014,05,02,06,20,8.90
2014,05,02,06,21,8.90
2014,05,02,06,22,8.90
2014,05,02,06,23,8.90
2014,05,02,06,24,8.90
2014,05,02,06,25,8.90
2014,05,02,06,26,8.90
2014,05,02,06,27,8.90
2014,05,02,06,28,8.90
2014,05,02,06,29,8.90
2014,05,02,06,30,8.90
2014,05,02,06,31,8.90
2014,05,02,06,32,8.90
2014,05,02,06,33,8.90
2014,05,02,06,34,8.90
2014,05,02,06,35,9.00
2014,05,02,06,36,9.00
2014,05,02,06,37,9.10
2014,05,02,06,38,9.10
2014,05,02,06,39,9.20
2014,05,02,06,40,9.40
2014,05,02,06,41,9.50
2014,05,02,06,42,9.70
2014,05,02,06,43,9.90
2014,05,02,06,44,10.00
2014,05,02,06,45,10.20
2014,05,02,06,46,10.30
2014,05,02,06,47,10.40
2014,05,02,06,48,10.50
2014,05,02,06,49,10.50
2014,05,02,06,50,10.60
2014,05,02,06,51,10.70
2014,05,02,06,52,10.70
2014,05,02,06,53,10.70
2014,05,02,06,54,10.70
2014,05,02,06,55,10.80
2014,05,02,06,56,10.80
2014,05,02,06,57,10.90
2014,05,02,06,58,11.00
2014,05,02,06,59,11.00
2014,05,02,07,00,11.10
2014,05,02,07,01,11.20
2014,05,02,07,02,11.20
2014,05,02,07,03,11.30
2014,05,02,07,04,11.30
2014,05,02,07,05,11.40
2014,05,02,07,06,11.50
2014,05,02,07,07,11.60
2014,05,02,07,08,11.80
2014,05,02,07,09,12.00
2014,05,02,07,10,12.10
2014,05,02,07,11,12.30
2014,05,02,07,12,12.50
2014,05,02,07,13,12.60
2014,05,02,07,14,12.70
2014,05,02,07,15,12.70
2014,05,02,07,16,12.80
2014,05,02,07,17,12.80
2014,05,02,07,18,12.80
2014,05,02,07,19,12.80
2014,05,02,07,20,12.80
2014,05,02,07,21,12.90
2014,05,02,07,22,12.90
2014,05,02,07,23,13.00
2014,05,02,07,24,13.10
2014,05,02,07,25,13.10
2014,05,02,07,26,13.20
2014,05,02,07,27,13.30
2014,05,02,07,28,13.40
2014,05,02,07,29,13.60
2014,05,02,07,30,13.70
2014,05,02,07,31,13.80
2014,05,02,07,32,13.90
2014,05,02,07,33,14.00
2014,05,02,07,34,14.10
2014,05,02,07,35,14.10
2014,05,02,07,36,14.10
2014,05,02,07,37,14.20
2014,05,02,07,38,14.20
2014,05,02,07,39,14.20
2014,05,02,07,40,14.20
2014,05,02,07,41,14.30
2014,05,02,07,42,14.30
2014,05,02,07,43,14.40
2014,05,02,07,44,14.50
2014,05,02,07,45,14.60
2014,05,02,07,46,14.60
2014,05,02,07,47,14.70
2014,05,02,07,48,14.70
2014,05,02,07,49,14.70
2014,05,02,07,50,14.70
2014,05,02,07,51,14.70
2014,05,02,07,52,14.70
2014,05,02,07,53,14.60
2014,05,02,07,54,14.60
2014,05,02,07,55,14.60
2014,05,02,07,56,14.60
2014,05,02,07,57,14.70
2014,05,02,07,58,14.70
2014,05,02,07,59,14.70
2014,05,02,08,00,14.70
2014,05,02,08,01,14.70
2014,05,02,08,02,14.70
2014,05,02,08,03,14.70
2014,05,02,08,04,14.70
2014,05,02,08,05,14.80
2014,05,02,08,06,14.90
2014,05,02,08,07,14.90
2014,05,02,08,08,15.00
2014,05,02,08,09,15.10
2014,05,02,08,10,15.20
2014,05,02,08,11,15.30
2014,05,02,08,12,15.30
2014,05,02,08,13,15.40
2014,05,02,08,14,15.50
2014,05,02,08,15,15.60
2014,05,02,08,16,15.70
2014,05,02,08,17,15.70
2014,05,02,08,18,15.70
2014,05,02,08,19,15.70
2014,05,02,08,20,15.70
2014,05,02,08,21,15.70
2014,05,02,08,22,15.70
2014,05,02,08,23,15.70
2014,05,02,08,24,15.80
2014,05,02,08,25,15.80
2014,05,02,08,26,15.90
2014,05,02,08,27,15.90
2014,05,02,08,28,15.90
2014,05,02,08,29,16.00
2014,05,02,08,30,16.00
2014,05,02,08,31,16.00
2014,05,02,08,32,16.00
2014,05,02,08,33,16.10
2014,05,02,08,34,16.10
2014,05,02,08,35,16.10
2014,05,02,08,36,16.10
2014,05,02,08,37,16.20
2014,05,02,08,38,16.20
2014,05,02,08,39,16.20
2014,05,02,08,40,16.20
2014,05,02,08,41,16.30
2014,05,02,08,42,16.30
2014,05,02,08,43,16.30
2014,05,02,08,44,16.30
2014,05,02,08,45,16.30
2014,05,02,08,46,16.30
2014,05,02,08,47,16.30
2014,05,02,08,48,16.30
2014,05,02,08,49,16.30
2014,05,02,08,50,16.20
2014,05,02,08,51,16.20
2014,05,02,08,52,16.10
2014,05,02,08,53,16.10
2014,05,02,08,54,16.00
2014,05,02,08,55,16.00
2014,05,02,08,56,16.00
2014,05,02,08,57,16.00
2014,05,02,08,58,16.00
2014,05,02,08,59,16.00
2014,05,02,09,00,16.00
2014,05,02,09,01,16.00
2014,05,02,09,02,16.00
2014,05,02,09,03,16.10
2014,05,02,09,04,16.10
2014,05,02,09,05,16.00
2014,05,02,09,06,16.00
2014,05,02,09,07,15.90
2014,05,02,09,08,15.90
2014,05,02,09,09,15.90
2014,05,02,09,10,15.90
2014,05,02,09,11,15.90
2014,05,02,09,12,15.80
2014,05,02,09,13,15.80
2014,05,02,09,14,15.70
2014,05,02,09,15,15.70
2014,05,02,09,16,15.70
2014,05,02,09,17,15.70
2014,05,02,09,18,15.70
2014,05,02,09,19,15.70
2014,05,02,09,20,15.70
2014,05,02,09,21,15.70
2014,05,02,09,22,15.80
2014,05,02,09,23,15.80
2014,05,02,09,24,15.80
2014,05,02,09,25,15.90
2014,05,02,09,26,16.00
2014,05,02,09,27,16.00
2014,05,02,09,28,16.10
2014,05,02,09,29,16.10
2014,05,02,09,30,16.10
2014,05,02,09,31,16.00
2014,05,02,09,32,16.00
2014,05,02,09,33,15.90
2014,05,02,09,34,15.90
2014,05,02,09,35,15.90
2014,05,02,09,36,15.90
2014,05,02,09,37,15.90
2014,05,02,09,38,15.90
2014,05,02,09,39,16.00
2014,05,02,09,40,16.00
2014,05,02,09,41,16.00
2014,05,02,09,42,16.00
2014,05,02,09,43,16.10
2014,05,02,09,44,16.10
2014,05,02,09,45,16.20
2014,05,02,09,46,16.20
2014,05,02,09,47,16.30
2014,05,02,09,48,16.40
2014,05,02,09,49,16.50
2014,05,02,09,50,16.60
2014,05,02,09,51,16.60
2014,05,02,09,52,16.60
2014,05,02,09,53,16.60
2014,05,02,09,54,16.60
2014,05,02,09,55,16.60
2014,05,02,09,56,16.60
2014,05,02,09,57,16.60
2014,05,02,09,58,16.60
2014,05,02,09,59,16.60
2014,05,02,10,00,16.70
2014,05,02,10,01,16.70
2014,05,02,10,02,16.70
2014,05,02,10,03,16.80
2014,05,02,10,04,16.80
2014,05,02,10,05,16.80
2014,05,02,10,06,16.80
2014,05,02,10,07,16.80
2014,05,02,10,08,16.80
2014,05,02,10,09,16.80
2014,05,02,10,10,16.80
2014,05,02,10,11,16.80
2014,05,02,10,12,16.80
2014,05,02,10,13,16.80
2014,05,02,10,14,16.80
2014,05,02,10,15,16.70
2014,05,02,10,16,16.70
2014,05,02,10,17,16.70
2014,05,02,10,18,16.70
2014,05,02,10,19,16.70
2014,05,02,10,20,16.80
2014,05,02,10,21,16.80
2014,05,02,10,22,16.80
2014,05,02,10,23,16.90
2014,05,02,10,24,16.90
2014,05,02,10,25,17.00
2014,05,02,10,26,17.00
2014,05,02,10,27,17.10
2014,05,02,10,28,17.20
2014,05,02,10,29,17.30
2014,05,02,10,30,17.40
2014,05,02,10,31,17.50
2014,05,02,10,32,17.60
2014,05,02,10,33,17.70
2014,05,02,10,34,17.70
2014,05,02,10,35,17.70
2014,05,02,10,36,17.80
2014,05,02,10,37,17.80
2014,05,02,10,38,17.80
2014,05,02,10,39,17.80
2014,05,02,10,40,17.90
2014,05,02,10,41,17.90
2014,05,02,10,42,17.90
2014,05,02,10,43,17.80
2014,05,02,10,44,17.80
2014,05,02,10,45,17.80
2014,05,02,10,46,17.80
2014,05,02,10,47,17.70
2014,05,02,10,48,17.70
2014,05,02,10,49,17.60
2014,05,02,10,50,17.50
2014,05,02,10,51,17.50
2014,05,02,10,52,17.40
2014,05,02,10,53,17.30
2014,05,02,10,54,17.30
2014,05,02,10,55,17.30
2014,05,02,10,56,17.30
2014,05,02,10,57,17.20
2014,05,02,10,58,17.20
2014,05,02,10,59,17.20
2014,05,02,11,00,17.10
2014,05,02,11,01,17.00
2014,05,02,11,02,16.90
2014,05,02,11,03,16.90
2014,05,02,11,04,16.80
2014,05,02,11,05,16.80
2014,05,02,11,06,16.70
2014,05,02,11,07,16.70
2014,05,02,11,08,16.70
2014,05,02,11,09,16.70
2014,05,02,11,10,16.70
2014,05,02,11,11,16.70
2014,05,02,11,12,16.60
2014,05,02,11,13,16.60
2014,05,02,11,14,16.60
2014,05,02,11,15,16.70
2014,05,02,11,16,16.70
2014,05,02,11,17,16.70
2014,05,02,11,18,16.70
2014,05,02,11,19,16.80
2014,05,02,11,20,16.80
2014,05,02,11,21,16.80
2014,05,02,11,22,16.80
2014,05,02,11,23,16.80
2014,05,02,11,24,16.80
2014,05,02,11,25,16.90
2014,05,02,11,26,16.90
2014,05,02,11,27,17.00
2014,05,02,11,28,17.00
2014,05,02,11,29,17.00
2014,05,02,11,30,17.00
2014,05,02,11,31,17.00
2014,05,02,11,32,17.00
2014,05,02,11,33,17.00
2014,05,02,11,34,17.10
2014,05,02,11,35,17.10
2014,05,02,11,36,17.20
2014,05,02,11,37,17.30
2014,05,02,11,38,17.30
2014,05,02,11,39,17.40
2014,05,02,11,40,17.50
2014,05,02,11,41,17.50
2014,05,02,11,42,17.60
2014,05,02,11,43,17.60
2014,05,02,11,44,17.60
2014,05,02,11,45,17.60
2014,05,02,11,46,17.60
2014,05,02,11,47,17.60
2014,05,02,11,48,17.60
2014,05,02,11,49,17.60
2014,05,02,11,50,17.60
2014,05,02,11,51,17.60
2014,05,02,11,52,17.70
2014,05,02,11,53,17.80
2014,05,02,11,54,17.80
2014,05,02,11,55,17.80
2014,05,02,11,56,17.90
2014,05,02,11,57,18.00
2014,05,02,11,58,18.10
2014,05,02,11,59,18.20
2014,05,02,12,00,18.30
2014,05,02,12,01,18.30
2014,05,02,12,02,18.40
2014,05,02,12,03,18.40
2014,05,02,12,04,18.40
2014,05,02,12,05,18.40
2014,05,02,12,06,18.30
2014,05,02,12,07,18.30
2014,05,02,12,08,18.20
2014,05,02,12,09,18.20
2014,05,02,12,10,18.20
2014,05,02,12,11,18.30
2014,05,02,12,12,18.30
2014,05,02,12,13,18.30
2014,05,02,12,14,18.30
2014,05,02,12,15,18.30
2014,05,02,12,16,18.30
2014,05,02,12,17,18.30
2014,05,02,12,18,18.20
2014,05,02,12,19,18.10
2014,05,02,12,20,18.10
2014,05,02,12,21,18.00
2014,05,02,12,22,18.00
2014,05,02,12,23,18.00
2014,05,02,12,24,18.00
2014,05,02,12,25,18.10
2014,05,02,12,26,18.10
2014,05,02,12,27,18.20
2014,05,02,12,28,18.20
2014,05,02,12,29,18.30
2014,05,02,12,30,18.30
2014,05,02,12,31,18.30
2014,05,02,12,32,18.40
2014,05,02,12,33,18.30
2014,05,02,12,34,18.30
2014,05,02,12,35,18.30
2014,05,02,12,36,18.30
2014,05,02,12,37,18.30
2014,05,02,12,38,18.30
2014,05,02,12,39,18.30
2014,05,02,12,40,18.30
2014,05,02,12,41,18.30
2014,05,02,12,42,18.30
2014,05,02,12,43,18.30
2014,05,02,12,44,18.30
2014,05,02,12,45,18.30
2014,05,02,12,46,18.30
2014,05,02,12,47,18.30
2014,05,02,12,48,18.30
2014,05,02,12,49,18.20
2014,05,02,12,50,18.20
2014,05,02,12,51,18.10
2014,05,02,12,52,18.10
2014,05,02,12,53,18.00
2014,05,02,12,54,18.00
2014,05,02,12,55,18.00
2014,05,02,12,56,18.10
2014,05,02,12,57,18.10
2014,05,02,12,58,18.00
2014,05,02,12,59,18.00
2014,05,02,13,00,18.00
2014,05,02,13,01,18.00
2014,05,02,13,02,17.90
2014,05,02,13,03,17.90
2014,05,02,13,04,17.90
2014,05,02,13,05,17.90
2014,05,02,13,06,17.90
2014,05,02,13,07,17.90
2014,05,02,13,08,17.90
2014,05,02,13,09,17.90
2014,05,02,13,10,17.90
2014,05,02,13,11,18.00
2014,05,02,13,12,18.00
2014,05,02,13,13,18.10
2014,05,02,13,14,18.10
2014,05,02,13,15,18.20
2014,05,02,13,16,18.20
2014,05,02,13,17,18.10
2014,05,02,13,18,18.10
2014,05,02,13,19,18.10
2014,05,02,13,20,18.00
2014,05,02,13,21,17.90
2014,05,02,13,22,17.80
2014,05,02,13,23,17.80
2014,05,02,13,24,17.90
2014,05,02,13,25,17.90
2014,05,02,13,26,17.90
2014,05,02,13,27,18.00
2014,05,02,13,28,18.00
2014,05,02,13,29,18.10
2014,05,02,13,30,18.10
2014,05,02,13,31,18.10
2014,05,02,13,32,18.10
2014,05,02,13,33,18.10
2014,05,02,13,34,18.10
2014,05,02,13,35,18.00
2014,05,02,13,36,18.00
2014,05,02,13,37,17.90
2014,05,02,13,38,17.80
2014,05,02,13,39,17.70
2014,05,02,13,40,17.70
2014,05,02,13,41,17.60
2014,05,02,13,42,17.50
2014,05,02,13,43,17.50
2014,05,02,13,44,17.40
2014,05,02,13,45,17.40
2014,05,02,13,46,17.50
2014,05,02,13,47,17.50
2014,05,02,13,48,17.50
2014,05,02,13,49,17.60
2014,05,02,13,50,17.60
2014,05,02,13,51,17.70
2014,05,02,13,52,17.70
2014,05,02,13,53,17.80
2014,05,02,13,54,17.80
2014,05,02,13,55,17.80
2014,05,02,13,56,17.80
2014,05,02,13,57,17.90
2014,05,02,13,58,17.90
2014,05,02,13,59,17.90
2014,05,02,14,00,18.00
2014,05,02,14,01,18.00
2014,05,02,14,02,18.00
2014,05,02,14,03,18.10
2014,05,02,14,04,18.10
2014,05,02,14,05,18.10
2014,05,02,14,06,18.10
2014,05,02,14,07,18.10
2014,05,02,14,08,18.00
2014,05,02,14,09,18.10
2014,05,02,14,10,18.10
2014,05,02,14,11,18.00
2014,05,02,14,12,18.00
2014,05,02,14,13,18.00
2014,05,02,14,14,18.00
2014,05,02,14,15,18.00
2014,05,02,14,16,18.10
2014,05,02,14,17,18.10
2014,05,02,14,18,18.10
2014,05,02,14,19,18.10
2014,05,02,14,20,18.20
2014,05,02,14,21,18.20
2014,05,02,14,22,18.30
2014,05,02,14,23,18.30
2014,05,02,14,24,18.10
2014,05,02,14,25,17.90
2014,05,02,14,26,17.70
2014,05,02,14,27,17.50
2014,05,02,14,28,17.40
2014,05,02,14,29,17.30
2014,05,02,14,30,17.10
2014,05,02,14,31,17.00
2014,05,02,14,32,17.00
2014,05,02,14,33,16.90
2014,05,02,14,34,16.90
2014,05,02,14,35,16.80
2014,05,02,14,36,16.80
2014,05,02,14,37,16.80
2014,05,02,14,38,16.80
2014,05,02,14,39,16.80
2014,05,02,14,40,16.80
2014,05,02,14,41,16.80
2014,05,02,14,42,16.80
2014,05,02,14,43,16.90
2014,05,02,14,44,16.90
2014,05,02,14,45,16.90
2014,05,02,14,46,16.90
2014,05,02,14,47,16.90
2014,05,02,14,48,17.00
2014,05,02,14,49,17.00
2014,05,02,14,50,17.10
2014,05,02,14,51,17.20
2014,05,02,14,52,17.30
2014,05,02,14,53,17.30
2014,05,02,14,54,17.40
2014,05,02,14,55,17.50
2014,05,02,14,56,17.50
2014,05,02,14,57,17.50
2014,05,02,14,58,17.40
2014,05,02,14,59,17.20
2014,05,02,15,00,17.10
2014,05,02,15,01,17.00
2014,05,02,15,02,16.90
2014,05,02,15,03,16.80
2014,05,02,15,04,16.80
2014,05,02,15,05,16.80
2014,05,02,15,06,16.80
2014,05,02,15,07,16.80
2014,05,02,15,08,16.90
2014,05,02,15,09,16.90
2014,05,02,15,10,17.00
2014,05,02,15,11,17.00
2014,05,02,15,12,17.10
2014,05,02,15,13,17.20
2014,05,02,15,14,17.20
2014,05,02,15,15,17.20
2014,05,02,15,16,17.20
2014,05,02,15,17,17.30
2014,05,02,15,18,17.30
2014,05,02,15,19,17.30
2014,05,02,15,20,17.30
2014,05,02,15,21,17.30
2014,05,02,15,22,17.30
2014,05,02,15,23,17.20
2014,05,02,15,24,17.10
2014,05,02,15,25,17.10
2014,05,02,15,26,17.00
2014,05,02,15,27,17.00
2014,05,02,15,28,16.90
2014,05,02,15,29,16.90
2014,05,02,15,30,17.00
2014,05,02,15,31,17.00
2014,05,02,15,32,17.00
2014,05,02,15,33,17.00
2014,05,02,15,34,17.00
2014,05,02,15,35,17.00
2014,05,02,15,36,16.90
2014,05,02,15,37,16.90
2014,05,02,15,38,16.90
2014,05,02,15,39,16.90
2014,05,02,15,40,16.80
2014,05,02,15,41,16.80
2014,05,02,15,42,16.80
2014,05,02,15,43,16.80
2014,05,02,15,44,16.80
2014,05,02,15,45,16.90
2014,05,02,15,46,16.90
2014,05,02,15,47,16.90
2014,05,02,15,48,16.90
2014,05,02,15,49,17.00
2014,05,02,15,50,17.00
2014,05,02,15,51,17.00
2014,05,02,15,52,17.00
2014,05,02,15,53,17.00
2014,05,02,15,54,17.00
2014,05,02,15,55,16.90
2014,05,02,15,56,16.90
2014,05,02,15,57,16.90
2014,05,02,15,58,16.90
2014,05,02,15,59,16.80
2014,05,02,16,00,16.80
2014,05,02,16,01,16.80
2014,05,02,16,02,16.80
2014,05,02,16,03,16.80
2014,05,02,16,04,16.80
2014,05,02,16,05,16.80
2014,05,02,16,06,16.70
2014,05,02,16,07,16.70
2014,05,02,16,08,16.70
2014,05,02,16,09,16.70
2014,05,02,16,10,16.60
2014,05,02,16,11,16.60
2014,05,02,16,12,16.50
2014,05,02,16,13,16.50
2014,05,02,16,14,16.40
2014,05,02,16,15,16.40
2014,05,02,16,16,16.30
2014,05,02,16,17,16.20
2014,05,02,16,18,16.20
2014,05,02,16,19,16.10
2014,05,02,16,20,16.10
2014,05,02,16,21,16.00
2014,05,02,16,22,15.90
2014,05,02,16,23,15.90
2014,05,02,16,24,15.80
2014,05,02,16,25,15.80
2014,05,02,16,26,15.70
2014,05,02,16,27,15.70
2014,05,02,16,28,15.70
2014,05,02,16,29,15.60
2014,05,02,16,30,15.60
2014,05,02,16,31,15.60
2014,05,02,16,32,15.60
2014,05,02,16,33,15.60
2014,05,02,16,34,15.50
2014,05,02,16,35,15.50
2014,05,02,16,36,15.40
2014,05,02,16,37,15.40
2014,05,02,16,38,15.40
2014,05,02,16,39,15.30
2014,05,02,16,40,15.30
2014,05,02,16,41,15.30
2014,05,02,16,42,15.20
2014,05,02,16,43,15.20
2014,05,02,16,44,15.10
2014,05,02,16,45,15.00
2014,05,02,16,46,14.90
2014,05,02,16,47,14.90
2014,05,02,16,48,14.80
2014,05,02,16,49,14.80
2014,05,02,16,50,14.70
2014,05,02,16,51,14.70
2014,05,02,16,52,14.60
2014,05,02,16,53,14.60
2014,05,02,16,54,14.60
2014,05,02,16,55,14.60
2014,05,02,16,56,14.60
2014,05,02,16,57,14.60
2014,05,02,16,58,14.60
2014,05,02,16,59,14.60
2014,05,02,17,00,14.60
2014,05,02,17,01,14.60
2014,05,02,17,02,14.60
2014,05,02,17,03,14.60
2014,05,02,17,04,14.60
2014,05,02,17,05,14.60
2014,05,02,17,06,14.60
2014,05,02,17,07,14.60
2014,05,02,17,08,14.60
2014,05,02,17,09,14.60
2014,05,02,17,10,14.60
2014,05,02,17,11,14.60
2014,05,02,17,12,14.60
2014,05,02,17,13,14.60
2014,05,02,17,14,14.70
2014,05,02,17,15,14.70
2014,05,02,17,16,14.70
2014,05,02,17,17,14.70
2014,05,02,17,18,14.70
2014,05,02,17,19,14.70
2014,05,02,17,20,14.70
2014,05,02,17,21,14.80
2014,05,02,17,22,14.80